BEIDOU-2 IGSO-7 (C16)

Last updated on Mon Oct 20 2025 00:03:25 GMT+0000 (Coordinated Universal Time)

1 43539U 18057A 25291.61264410 -.00000102 00000+0 00000+0 0 9990 2 43539 55.1678 165.1553 0091829 235.8799 319.4252 1.00274102 26704
UTC large
Height (km)
Speed (km/s)
/
Latitude / Longitude
Inclination (degrees)
Orbital Period (minutes)
Azimuth
Elevation
Range (km)
Doppler Factor

Next 0 passes for location: London (51.5072 / 0.1276)

Sorry there are no passes over London.